Regional Weather Roundup
Issued by NWS

Home | Current Version | Previous Version | Text Only | Print | Product List | Glossary Off
Versions: 1 2 3 4 5 6 7 8 9 10 11 12 13 14 15 16 17 18 19 20 21 22 23 24 25 26 27 28 29 30 31 32 33 34 35 36 37 38 39 40 41 42 43 44 45 46 47 48 49 50

000
ASUS43 KIND 201059
RWRIN

WEATHER ROUNDUP FOR INDIANA
NATIONAL WEATHER SERVICE INDIANAPOLIS IN
600 AM EST FRI JAN 20 2017

NOTE: "FAIR" INDICATES FEW OR NO CLOUDS BELOW 12,000 FEET WITH NO
SIGNIFICANT WEATHER AND/OR OBSTRUCTIONS TO VISIBILITY.

* - STATION DOES NOT REPORT WEATHER SUCH AS PRECIPITATION OR FOG.

+ - STATION NOT QUALITY CONTROLLED BY THE NATIONAL WEATHER SERVICE.
    USE DATA WITH CAUTION...ESPECIALLY DEWPOINT AND RELATIVE
    HUMIDITY OBSERVATIONS.

INZ001>003-010>013-019-020-201200-
NORTHWEST INDIANA

CITY           SKY/WX    TMP DP  RH WIND       PRES   REMARKS
GARY /AIRPORT/ LGT RAIN  39  37  93 NE5       29.63S
MONTICELLO +   RAIN      40  39  95 CALM      29.58F

$$

LMZ046-743>745-201200-
SOUTHERN LAKE MICHIGAN

STATION/POSITION TIME  TEMP    WIND        PRES    WAVE
                       AIR SEA DIR/SP/G            HT
                 (UTC) (F)     (DEG/KT/KT) (MB)    (FT)
BURNS HARBOR     1040   35      80/  8/  9 1003.7F
MICHIGAN CITY    1030   34      40/  9/ 10   N/A

$$

INZ004-005-014>016-021>024-201200-
NORTH CENTRAL INDIANA

CITY           SKY/WX    TMP DP  RH WIND       PRES   REMARKS
GOSHEN         LGT RAIN  37  34  89 E8        29.61F FOG
PERU/GRISSOM   LGT RAIN  41  41 100 E8        29.57F
SOUTH BEND     LGT RAIN  37  37 100 E8        29.62F FOG

$$

INZ006>009-017-018-025>027-201200-
NORTHEAST INDIANA

CITY           SKY/WX    TMP DP  RH WIND       PRES   REMARKS
ANGOLA *+      CLOUDY    36  36 100 E12       29.61F
FORT WAYNE     RAIN      39  36  89 E9        29.61F FOG
KENDALLVILLE + LGT RAIN  36  36 100 E9        29.62R

$$

INZ028-029-035-036-043>045-051>053-201200-
WEST CENTRAL INDIANA

CITY           SKY/WX    TMP DP  RH WIND       PRES   REMARKS
CRAWFORDSVL +  LGT SNOW  42  42 100 CALM      29.58R
LAFAYETTE      LGT RAIN  42  42 100 CALM      29.58F FOG
TERRE HAUTE    CLOUDY    49  48  97 W9        29.60S

$$

INZ030>032-037>040-046>048-054>057-064-065-201200-
CENTRAL INDIANA

CITY           SKY/WX    TMP DP  RH WIND       PRES   REMARKS
INDIANAPOLIS   CLOUDY    46  45  96 S6        29.58S
-EAGLE CREEK   LGT RAIN  46  44  93 SW3       29.57F FOG
KOKOMO +       LGT RAIN  41  40  96 E7        29.59F
MT COMFORT *+  CLOUDY    45  45 100 SE6       29.57F
SHELBYVILLE    LGT RAIN  47  45  93 S9        29.58F

$$

INZ033-034-041-042-049-050-058-059-201200-
EAST CENTRAL INDIANA

CITY           SKY/WX    TMP DP  RH WIND       PRES   REMARKS
MUNCIE         LGT RAIN  44  42  93 CALM      29.58F FOG

$$

INZ060-061-067>069-081>083-085>088-201200-
SOUTHWEST INDIANA

CITY           SKY/WX    TMP DP  RH WIND       PRES   REMARKS
EVANSVILLE     CLOUDY    56  51  84 SW16      29.66R
HUNTINGBURG *+ CLOUDY    55  54  94 SW15      29.66R

$$

INZ062-063-066-070>080-084-089>092-201200-
SOUTH CENTRAL AND SOUTHEAST INDIANA

CITY           SKY/WX    TMP DP  RH WIND       PRES   REMARKS
BLOOMINGTON    CLOUDY    53  50  89 SW7       29.61R
MADISON *+     CLOUDY    50  50 100 S3        29.65S
SEYMOUR +      CLOUDY    50  50 100 S7        29.63R

$$





USA.gov is the U.S. government's official web portal to all federal, state and local government web resources and services.